| time (UTC) | temp F | wind direction | speed knots | gust knots | rain 1hr in | rain 24hr in | rain mn in | humidity % | barometer mb |
| 20260903092051 | 62 | 200 | 1.7 | 0.0 | 0.00 | 0.00 | 0.00 | 95 | 1012.4 |
| 20260903091550 | 62 | 182 | 1.7 | 0.0 | 0.00 | 0.00 | 0.00 | 95 | 1012.4 |
| 20260903091050 | 62 | 198 | 1.7 | 0.0 | 0.00 | 0.00 | 0.00 | 95 | 1012.7 |
| 20260903090550 | 62 | 161 | 1.7 | 0.0 | 0.00 | 0.00 | 0.00 | 95 | 1012.7 |
| 20260903090050 | 62 | 196 | 1.7 | 0.0 | 0.00 | 0.00 | 0.00 | 95 | 1012.7 |
| 20260903085548 | 62 | 196 | 1.7 | 0.0 | 0.00 | 0.00 | 0.00 | 95 | 1012.9 |
| 20260903085049 | 62 | 190 | 1.7 | 0.0 | 0.00 | 0.00 | 0.00 | 94 | 1012.9 |
| 20260903084549 | 62 | 187 | 1.7 | 0.0 | 0.00 | 0.00 | 0.00 | 94 | 1012.9 |
| 20260903084048 | 62 | 192 | 1.7 | 0.0 | 0.00 | 0.00 | 0.00 | 94 | 1012.9 |
| 20260903083548 | 62 | 158 | 1.7 | 0.0 | 0.00 | 0.00 | 0.00 | 94 | 1012.9 |
| 20260903083053 | 62 | 197 | 2.6 | 0.0 | 0.00 | 0.00 | 0.00 | 94 | 1012.9 |
| 20260903082548 | 62 | 184 | 1.7 | 0.0 | 0.00 | 0.00 | 0.00 | 94 | 1012.9 |
| 20260903082148 | 62 | 237 | 1.7 | 0.0 | 0.00 | 0.00 | 0.00 | 94 | 1012.9 |
| 20260903081549 | 62 | 167 | 1.7 | 0.0 | 0.00 | 0.00 | 0.00 | 94 | 1012.9 |
| 20260903081048 | 62 | 143 | 1.7 | 0.0 | 0.00 | 0.00 | 0.00 | 94 | 1013.0 |
| 20260903080548 | 62 | 180 | 1.7 | 0.0 | 0.00 | 0.00 | 0.00 | 94 | 1013.0 |
| 20260903080050 | 62 | 127 | 1.7 | 0.0 | 0.00 | 0.00 | 0.00 | 94 | 1013.0 |
| 20260903075546 | 62 | 163 | 2.6 | 0.0 | 0.00 | 0.00 | 0.00 | 94 | 1012.9 |
| 20260903075045 | 62 | 205 | 2.6 | 0.0 | 0.00 | 0.00 | 0.00 | 94 | 1012.9 |
| 20260903074546 | 63 | 245 | 3.5 | 0.0 | 0.00 | 0.00 | 0.00 | 93 | 1012.9 |
| 20260903074044 | 63 | 257 | 3.5 | 0.0 | 0.00 | 0.00 | 0.00 | 93 | 1013.0 |
| 20260903073544 | 63 | 257 | 4.3 | 0.0 | 0.00 | 0.00 | 0.00 | 93 | 1013.0 |
| 20260903073044 | 63 | 294 | 4.3 | 0.0 | 0.00 | 0.00 | 0.00 | 93 | 1013.0 |
| 20260903072542 | 63 | 306 | 4.3 | 0.0 | 0.00 | 0.00 | 0.00 | 93 | 1012.9 |
| 20260903072042 | 63 | 299 | 4.3 | 0.0 | 0.00 | 0.00 | 0.00 | 93 | 1012.9 |
| 20260903071542 | 63 | 297 | 3.5 | 0.0 | 0.00 | 0.00 | 0.00 | 93 | 1012.9 |
| 20260903071040 | 63 | 256 | 4.3 | 0.0 | 0.00 | 0.00 | 0.00 | 92 | 1012.9 |
| 20260903070544 | 63 | 279 | 4.3 | 0.0 | 0.00 | 0.00 | 0.00 | 92 | 1012.9 |
| 20260903070040 | 63 | 290 | 3.5 | 0.0 | 0.00 | 0.00 | 0.00 | 92 | 1012.9 |
| 20260903065540 | 63 | 245 | 3.5 | 0.0 | 0.00 | 0.00 | 0.00 | 92 | 1013.0 |
| 20260903065039 | 62 | 229 | 3.5 | 0.0 | 0.00 | 0.00 | 0.00 | 91 | 1013.0 |
| 20260903064541 | 62 | 288 | 2.6 | 0.0 | 0.00 | 0.00 | 0.00 | 91 | 1013.0 |
| 20260903064039 | 62 | 302 | 2.6 | 0.0 | 0.00 | 0.00 | 0.00 | 92 | 1012.8 |
| 20260903063539 | 62 | 287 | 2.6 | 0.0 | 0.00 | 0.00 | 0.00 | 92 | 1012.8 |
| 20260903063039 | 62 | 160 | 2.6 | 0.0 | 0.00 | 0.00 | 0.00 | 93 | 1012.8 |
| 20260903062539 | 62 | 196 | 2.6 | 0.0 | 0.00 | 0.00 | 0.00 | 93 | 1012.9 |
| 20260903062039 | 62 | 218 | 2.6 | 0.0 | 0.00 | 0.00 | 0.00 | 93 | 1012.9 |
| 20260903061550 | 62 | 188 | 2.6 | 0.0 | 0.00 | 0.00 | 0.00 | 93 | 1012.9 |
| 20260903061038 | 62 | 180 | 2.6 | 0.0 | 0.00 | 0.00 | 0.00 | 93 | 1012.8 |
| 20260903060538 | 63 | 157 | 2.6 | 0.0 | 0.00 | 0.00 | 0.00 | 93 | 1012.8 |
| 20260903060041 | 63 | 186 | 2.6 | 0.0 | 0.00 | 0.00 | 0.00 | 93 | 1012.8 |
| 20260903055538 | 63 | 214 | 2.6 | 0.0 | 0.00 | 0.00 | 0.00 | 93 | 1012.8 |
| 20260903055037 | 63 | 177 | 2.6 | 0.0 | 0.00 | 0.00 | 0.00 | 93 | 1012.8 |
| 20260903054541 | 63 | 271 | 2.6 | 0.0 | 0.00 | 0.00 | 0.00 | 93 | 1012.8 |
| 20260903054037 | 63 | 185 | 3.5 | 0.0 | 0.00 | 0.00 | 0.00 | 93 | 1012.7 |
| 20260903053537 | 63 | 185 | 4.3 | 0.0 | 0.00 | 0.00 | 0.00 | 93 | 1012.7 |
| 20260903053038 | 63 | 275 | 3.5 | 0.0 | 0.00 | 0.00 | 0.00 | 93 | 1012.7 |
| 20260903052537 | 63 | 284 | 3.5 | 0.0 | 0.00 | 0.00 | 0.00 | 93 | 1012.8 |
| 20260903052037 | 63 | 272 | 4.3 | 0.0 | 0.00 | 0.00 | 0.00 | 93 | 1012.8 |
| 20260903051537 | 63 | 309 | 5.2 | 0.0 | 0.00 | 0.00 | 0.00 | 93 | 1012.8 |
| 20260903051036 | 63 | 308 | 5.2 | 0.0 | 0.00 | 0.00 | 0.00 | 93 | 1013.1 |
| 20260903050536 | 63 | 265 | 3.5 | 0.0 | 0.00 | 0.00 | 0.00 | 93 | 1013.1 |
| 20260903050036 | 63 | 240 | 4.3 | 0.0 | 0.00 | 0.00 | 0.00 | 92 | 1013.1 |
| 20260903045537 | 63 | 238 | 4.3 | 0.0 | 0.00 | 0.00 | 0.00 | 92 | 1013.1 |
| 20260903045041 | 63 | 271 | 3.5 | 0.0 | 0.00 | 0.00 | 0.00 | 92 | 1013.1 |
| 20260903044540 | 63 | 252 | 1.7 | 0.0 | 0.00 | 0.00 | 0.00 | 92 | 1013.1 |
| 20260903044042 | 63 | 265 | 0.9 | 0.0 | 0.00 | 0.00 | 0.00 | 91 | 1013.1 |
| 20260903043537 | 63 | 149 | 0.9 | 0.0 | 0.00 | 0.00 | 0.00 | 91 | 1013.1 |
| 20260903043042 | 63 | 79 | 0.9 | 0.0 | 0.00 | 0.00 | 0.00 | 91 | 1013.1 |
| 20260903042535 | 63 | 139 | 0.9 | 0.0 | 0.00 | 0.00 | 0.00 | 91 | 1012.9 |
| 20260903042037 | 63 | 171 | 1.7 | 0.0 | 0.00 | 0.00 | 0.00 | 91 | 1012.9 |
| 20260903041535 | 63 | 128 | 1.7 | 0.0 | 0.00 | 0.00 | 0.00 | 91 | 1012.9 |
| 20260903041035 | 63 | 157 | 1.7 | 0.0 | 0.00 | 0.00 | 0.00 | 90 | 1013.0 |
| 20260903040535 | 63 | 208 | 2.6 | 0.0 | 0.00 | 0.00 | 0.00 | 90 | 1013.0 |
| 20260903040035 | 63 | 182 | 2.6 | 0.0 | 0.00 | 0.00 | 0.00 | 90 | 1013.0 |
| 20260903035534 | 63 | 192 | 1.7 | 0.0 | 0.00 | 0.00 | 0.00 | 89 | 1012.9 |
| 20260903035034 | 63 | 146 | 1.7 | 0.0 | 0.00 | 0.00 | 0.00 | 88 | 1012.9 |
| 20260903034542 | 63 | 207 | 1.7 | 0.0 | 0.00 | 0.00 | 0.00 | 88 | 1012.9 |
| 20260903034034 | 62 | 155 | 1.7 | 0.0 | 0.00 | 0.00 | 0.00 | 88 | 1012.8 |
| 20260903033536 | 62 | 195 | 1.7 | 0.0 | 0.00 | 0.00 | 0.00 | 87 | 1012.8 |
| 20260903033033 | 62 | 147 | 1.7 | 0.0 | 0.00 | 0.00 | 0.00 | 88 | 1012.8 |
| 20260903032535 | 62 | 192 | 0.9 | 0.0 | 0.00 | 0.00 | 0.00 | 87 | 1012.8 |
| 20260903032034 | 63 | 150 | 0.9 | 0.0 | 0.00 | 0.00 | 0.00 | 87 | 1012.8 |
| 20260903031533 | 63 | 169 | 1.7 | 0.0 | 0.00 | 0.00 | 0.00 | 87 | 1012.8 |
| 20260903031034 | 63 | 195 | 1.7 | 0.0 | 0.00 | 0.00 | 0.00 | 87 | 1012.8 |
| 20260903030534 | 63 | 169 | 1.7 | 0.0 | 0.00 | 0.00 | 0.00 | 87 | 1012.8 |
| 20260903030033 | 63 | 173 | 1.7 | 0.0 | 0.00 | 0.00 | 0.00 | 87 | 1012.8 |
| 20260903025537 | 63 | 169 | 1.7 | 0.0 | 0.00 | 0.00 | 0.00 | 87 | 1012.7 |
| 20260903025033 | 63 | 207 | 1.7 | 0.0 | 0.00 | 0.00 | 0.00 | 86 | 1012.7 |
| 20260903024533 | 63 | 173 | 1.7 | 0.0 | 0.00 | 0.00 | 0.00 | 86 | 1012.7 |
| 20260903024033 | 63 | 151 | 0.9 | 0.0 | 0.00 | 0.00 | 0.00 | 85 | 1012.6 |
| 20260903023533 | 64 | 164 | 1.7 | 0.0 | 0.00 | 0.00 | 0.00 | 85 | 1012.6 |
| 20260903023031 | 64 | 182 | 1.7 | 0.0 | 0.00 | 0.00 | 0.00 | 84 | 1012.6 |
| 20260903022533 | 64 | 190 | 2.6 | 0.0 | 0.00 | 0.00 | 0.00 | 84 | 1012.6 |
| 20260903022031 | 64 | 160 | 3.5 | 0.0 | 0.00 | 0.00 | 0.00 | 84 | 1012.6 |
| 20260903021532 | 64 | 271 | 3.5 | 0.0 | 0.00 | 0.00 | 0.00 | 84 | 1012.6 |
| 20260903021031 | 64 | 269 | 3.5 | 0.0 | 0.00 | 0.00 | 0.00 | 84 | 1012.7 |
| 20260903020535 | 64 | 252 | 4.3 | 0.0 | 0.00 | 0.00 | 0.00 | 83 | 1012.7 |
| 20260903020047 | 64 | 294 | 3.5 | 0.0 | 0.00 | 0.00 | 0.00 | 81 | 1012.7 |
| 20260903015534 | 64 | 288 | 2.6 | 0.0 | 0.00 | 0.00 | 0.00 | 80 | 1012.6 |
| 20260903015030 | 65 | 295 | 2.6 | 0.0 | 0.00 | 0.00 | 0.00 | 80 | 1012.6 |
| 20260903014532 | 65 | 269 | 2.6 | 0.0 | 0.00 | 0.00 | 0.00 | 79 | 1012.6 |
| 20260903014030 | 65 | 292 | 1.7 | 0.0 | 0.00 | 0.00 | 0.00 | 79 | 1012.7 |
| 20260903013531 | 66 | 202 | 1.7 | 0.0 | 0.00 | 0.00 | 0.00 | 79 | 1012.7 |
| 20260903013030 | 66 | 194 | 1.7 | 0.0 | 0.00 | 0.00 | 0.00 | 78 | 1012.7 |
| 20260903012529 | 66 | 165 | 2.6 | 0.0 | 0.00 | 0.00 | 0.00 | 77 | 1012.6 |
| 20260903012032 | 67 | 199 | 2.6 | 0.0 | 0.00 | 0.00 | 0.00 | 76 | 1012.6 |
| 20260903011530 | 67 | 212 | 2.6 | 0.0 | 0.00 | 0.00 | 0.00 | 76 | 1012.6 |
| 20260903011029 | 68 | 223 | 1.7 | 0.0 | 0.00 | 0.00 | 0.00 | 76 | 1012.4 |
| 20260903010529 | 68 | 182 | 2.6 | 0.0 | 0.00 | 0.00 | 0.00 | 76 | 1012.4 |
| 20260903010029 | 68 | 234 | 2.6 | 0.0 | 0.00 | 0.00 | 0.00 | 74 | 1012.4 |
| 20260903005531 | 69 | 304 | 1.7 | 0.0 | 0.00 | 0.00 | 0.00 | 74 | 1012.5 |
| 20260903005032 | 69 | 213 | 1.7 | 0.0 | 0.00 | 0.00 | 0.00 | 75 | 1012.5 |
| 20260903004528 | 69 | 212 | 2.6 | 0.0 | 0.00 | 0.00 | 0.00 | 75 | 1012.5 |
| 20260903004028 | 69 | 208 | 2.6 | 0.0 | 0.00 | 0.00 | 0.00 | 76 | 1012.6 |
| 20260903003528 | 69 | 195 | 1.7 | 0.0 | 0.00 | 0.00 | 0.00 | 76 | 1012.6 |
| 20260903003028 | 69 | 223 | 1.7 | 0.0 | 0.00 | 0.00 | 0.00 | 77 | 1012.6 |
| 20260903002527 | 69 | 240 | 2.6 | 0.0 | 0.00 | 0.00 | 0.00 | 77 | 1012.5 |
| 20260903002027 | 69 | 186 | 2.6 | 0.0 | 0.00 | 0.00 | 0.00 | 78 | 1012.5 |
| 20260903001526 | 69 | 226 | 2.6 | 0.0 | 0.00 | 0.00 | 0.00 | 77 | 1012.5 |
| 20260903001028 | 69 | 232 | 2.6 | 0.0 | 0.00 | 0.00 | 0.00 | 78 | 1012.6 |
| 20260903000526 | 69 | 65 | 2.6 | 0.0 | 0.00 | 0.00 | 0.00 | 79 | 1012.6 |
| 20260903000026 | 69 | 254 | 2.6 | 0.0 | 0.00 | 0.00 | 0.00 | 79 | 1012.6 |
| 20260902235526 | 69 | 318 | 3.5 | 0.0 | 0.00 | 0.00 | 0.00 | 77 | 1012.7 |
| 20260902235025 | 69 | 192 | 3.5 | 0.0 | 0.00 | 0.00 | 0.00 | 78 | 1012.7 |
| 20260902234525 | 70 | 267 | 3.5 | 0.0 | 0.00 | 0.00 | 0.00 | 77 | 1012.7 |
| 20260902234025 | 70 | 232 | 2.6 | 0.0 | 0.00 | 0.00 | 0.00 | 76 | 1012.7 |
| 20260902233525 | 71 | 204 | 2.6 | 0.0 | 0.00 | 0.00 | 0.00 | 75 | 1012.7 |
| 20260902233025 | 71 | 199 | 2.6 | 0.0 | 0.00 | 0.00 | 0.00 | 75 | 1012.7 |
| 20260902232524 | 71 | 223 | 3.5 | 0.0 | 0.00 | 0.00 | 0.00 | 75 | 1012.7 |
| 20260902232026 | 71 | 213 | 2.6 | 0.0 | 0.00 | 0.00 | 0.00 | 75 | 1012.7 |
| 20260902231524 | 71 | 154 | 2.6 | 0.0 | 0.00 | 0.00 | 0.00 | 74 | 1012.7 |
| 20260902231024 | 71 | 273 | 2.6 | 0.0 | 0.00 | 0.00 | 0.00 | 75 | 1013.0 |
| 20260902230523 | 71 | 155 | 3.5 | 0.0 | 0.00 | 0.00 | 0.00 | 75 | 1013.0 |
| 20260902230023 | 70 | 212 | 2.6 | 0.0 | 0.00 | 0.00 | 0.00 | 75 | 1013.0 |
| 20260902225525 | 70 | 325 | 3.5 | 0.0 | 0.00 | 0.00 | 0.00 | 73 | 1013.0 |
| 20260902225028 | 71 | 314 | 3.5 | 0.0 | 0.00 | 0.00 | 0.00 | 70 | 1013.0 |
| 20260902224524 | 72 | 221 | 2.6 | 0.0 | 0.00 | 0.00 | 0.00 | 69 | 1013.0 |
| 20260902224022 | 72 | 198 | 2.6 | 0.0 | 0.00 | 0.00 | 0.00 | 67 | 1013.1 |
| 20260902223522 | 72 | 204 | 2.6 | 0.0 | 0.00 | 0.00 | 0.00 | 66 | 1013.1 |
| 20260902223028 | 73 | 153 | 2.6 | 0.0 | 0.00 | 0.00 | 0.00 | 61 | 1013.1 |
| 20260902222522 | 73 | 252 | 3.5 | 0.0 | 0.00 | 0.00 | 0.00 | 59 | 1013.3 |
| 20260902222021 | 73 | 250 | 2.6 | 0.0 | 0.00 | 0.00 | 0.00 | 59 | 1013.3 |
| 20260902221526 | 73 | 201 | 2.6 | 0.0 | 0.00 | 0.00 | 0.00 | 54 | 1013.3 |
| 20260902221021 | 73 | 206 | 3.5 | 0.0 | 0.00 | 0.00 | 0.00 | 56 | 1013.5 |
| 20260902220521 | 73 | 203 | 2.6 | 0.0 | 0.00 | 0.00 | 0.00 | 56 | 1013.5 |
| 20260902220026 | 74 | 267 | 2.6 | 0.0 | 0.00 | 0.00 | 0.00 | 56 | 1013.5 |
| 20260902215519 | 74 | 213 | 2.6 | 0.0 | 0.00 | 0.00 | 0.00 | 57 | 1013.6 |
| 20260902215018 | 74 | 263 | 2.6 | 0.0 | 0.00 | 0.00 | 0.00 | 59 | 1013.6 |
| 20260902214517 | 73 | 175 | 2.6 | 0.0 | 0.00 | 0.00 | 0.00 | 67 | 1013.6 |
| 20260902214016 | 73 | 202 | 2.6 | 0.0 | 0.00 | 0.00 | 0.00 | 68 | 1013.7 |
| 20260902213515 | 72 | 162 | 3.5 | 0.0 | 0.00 | 0.00 | 0.00 | 67 | 1013.7 |
| 20260902213016 | 72 | 161 | 3.5 | 0.0 | 0.00 | 0.00 | 0.00 | 67 | 1013.7 |
| 20260902212518 | 73 | 173 | 3.5 | 0.0 | 0.00 | 0.00 | 0.00 | 66 | 1013.9 |
| 20260902212018 | 73 | 84 | 2.6 | 0.0 | 0.00 | 0.00 | 0.00 | 67 | 1013.9 |
| 20260902211514 | 72 | 208 | 2.6 | 0.0 | 0.00 | 0.00 | 0.00 | 68 | 1013.9 |
| 20260902211016 | 72 | 238 | 3.5 | 0.0 | 0.00 | 0.00 | 0.00 | 68 | 1014.1 |
| 20260902210513 | 72 | 199 | 3.5 | 0.0 | 0.00 | 0.00 | 0.00 | 66 | 1014.1 |
| 20260902210018 | 72 | 167 | 4.3 | 0.0 | 0.00 | 0.00 | 0.00 | 66 | 1014.1 |
| 20260902205517 | 72 | 282 | 3.5 | 0.0 | 0.00 | 0.00 | 0.00 | 66 | 1014.1 |
| 20260902205012 | 72 | 218 | 3.5 | 0.0 | 0.00 | 0.00 | 0.00 | 67 | 1014.1 |
| 20260902204510 | 71 | 218 | 2.6 | 0.0 | 0.00 | 0.00 | 0.00 | 70 | 1014.1 |
| 20260902204009 | 71 | 171 | 2.6 | 0.0 | 0.00 | 0.00 | 0.00 | 71 | 1014.1 |
| 20260902203512 | 71 | 202 | 2.6 | 0.0 | 0.00 | 0.00 | 0.00 | 72 | 1014.1 |
| 20260902203010 | 71 | 200 | 2.6 | 0.0 | 0.00 | 0.00 | 0.00 | 72 | 1014.1 |
| 20260902202509 | 71 | 214 | 2.6 | 0.0 | 0.00 | 0.00 | 0.00 | 74 | 1014.2 |
| 20260902202009 | 71 | 176 | 2.6 | 0.0 | 0.00 | 0.00 | 0.00 | 73 | 1014.2 |
| 20260902201517 | 71 | 172 | 2.6 | 0.0 | 0.00 | 0.00 | 0.00 | 74 | 1014.2 |
| 20260902201008 | 71 | 205 | 2.6 | 0.0 | 0.00 | 0.00 | 0.00 | 73 | 1014.4 |
| 20260902200508 | 71 | 157 | 2.6 | 0.0 | 0.00 | 0.00 | 0.00 | 74 | 1014.4 |
| 20260902200008 | 71 | 254 | 2.6 | 0.0 | 0.00 | 0.00 | 0.00 | 74 | 1014.4 |
| 20260902195506 | 70 | 165 | 2.6 | 0.0 | 0.00 | 0.00 | 0.00 | 75 | 1014.4 |
| 20260902195006 | 70 | 163 | 2.6 | 0.0 | 0.00 | 0.00 | 0.00 | 73 | 1014.4 |
| 20260902194506 | 70 | 150 | 2.6 | 0.0 | 0.00 | 0.00 | 0.00 | 73 | 1014.4 |
| 20260902194005 | 70 | 201 | 2.6 | 0.0 | 0.00 | 0.00 | 0.00 | 74 | 1014.5 |
| 20260902193505 | 70 | 233 | 2.6 | 0.0 | 0.00 | 0.00 | 0.00 | 75 | 1014.5 |
| 20260902193005 | 70 | 202 | 2.6 | 0.0 | 0.00 | 0.00 | 0.00 | 75 | 1014.5 |
| 20260902192504 | 70 | 221 | 2.6 | 0.0 | 0.00 | 0.00 | 0.00 | 74 | 1014.8 |
| 20260902192008 | 70 | 123 | 2.6 | 0.0 | 0.00 | 0.00 | 0.00 | 74 | 1014.8 |
| 20260902191505 | 70 | 198 | 2.6 | 0.0 | 0.00 | 0.00 | 0.00 | 76 | 1014.8 |
| 20260902191004 | 70 | 184 | 2.6 | 0.0 | 0.00 | 0.00 | 0.00 | 74 | 1014.7 |
| 20260902190504 | 70 | 180 | 2.6 | 0.0 | 0.00 | 0.00 | 0.00 | 74 | 1014.7 |
| 20260902190004 | 70 | 117 | 2.6 | 0.0 | 0.00 | 0.00 | 0.00 | 74 | 1014.7 |
| 20260902185504 | 70 | 175 | 2.6 | 0.0 | 0.00 | 0.00 | 0.00 | 73 | 1014.7 |
| 20260902185006 | 70 | 198 | 2.6 | 0.0 | 0.00 | 0.00 | 0.00 | 73 | 1014.7 |
| 20260902184503 | 70 | 196 | 2.6 | 0.0 | 0.00 | 0.00 | 0.00 | 73 | 1014.7 |
| 20260902184003 | 70 | 115 | 2.6 | 0.0 | 0.00 | 0.00 | 0.00 | 72 | 1014.8 |
| 20260902183600 | 69 | 166 | 2.6 | 0.0 | 0.00 | 0.00 | 0.00 | 69 | 1014.8 |
| 20260902183100 | 70 | 128 | 2.6 | 0.0 | 0.00 | 0.00 | 0.00 | 72 | 1014.8 |
| 20260902182558 | 69 | 169 | 2.6 | 0.0 | 0.00 | 0.00 | 0.00 | 72 | 1014.8 |
| 20260902182058 | 69 | 165 | 2.6 | 0.0 | 0.00 | 0.00 | 0.00 | 75 | 1014.8 |
| 20260902181558 | 69 | 199 | 2.6 | 0.0 | 0.00 | 0.00 | 0.00 | 75 | 1014.8 |
| 20260902181056 | 69 | 175 | 1.7 | 0.0 | 0.00 | 0.00 | 0.00 | 76 | 1014.8 |
| 20260902180555 | 69 | 160 | 1.7 | 0.0 | 0.00 | 0.00 | 0.00 | 78 | 1014.8 |
| 20260902180056 | 68 | 159 | 1.7 | 0.0 | 0.00 | 0.00 | 0.00 | 80 | 1014.8 |
| 20260902175554 | 68 | 224 | 1.7 | 0.0 | 0.00 | 0.00 | 0.00 | 80 | 1015.0 |
| 20260902175054 | 68 | 184 | 1.7 | 0.0 | 0.00 | 0.00 | 0.00 | 80 | 1015.0 |
| 20260902174554 | 68 | 167 | 1.7 | 0.0 | 0.00 | 0.00 | 0.00 | 80 | 1015.0 |
| 20260902174053 | 68 | 163 | 1.7 | 0.0 | 0.00 | 0.00 | 0.00 | 80 | 1014.9 |
| 20260902173552 | 68 | 157 | 2.6 | 0.0 | 0.00 | 0.00 | 0.00 | 82 | 1014.9 |
| 20260902173051 | 67 | 150 | 1.7 | 0.0 | 0.00 | 0.00 | 0.00 | 83 | 1014.9 |
| 20260902172549 | 67 | 208 | 1.7 | 0.0 | 0.00 | 0.00 | 0.00 | 81 | 1014.8 |
| 20260902172051 | 67 | 230 | 1.7 | 0.0 | 0.00 | 0.00 | 0.00 | 82 | 1014.8 |
| 20260902171603 | 67 | 224 | 1.7 | 0.0 | 0.00 | 0.00 | 0.00 | 83 | 1014.8 |
| 20260902171048 | 67 | 183 | 1.7 | 0.0 | 0.00 | 0.00 | 0.00 | 82 | 1014.7 |
| 20260902170549 | 67 | 265 | 1.7 | 0.0 | 0.00 | 0.00 | 0.00 | 82 | 1014.7 |
| 20260902170048 | 67 | 172 | 1.7 | 0.0 | 0.00 | 0.00 | 0.00 | 83 | 1014.7 |
| 20260902165546 | 66 | 196 | 0.9 | 0.0 | 0.00 | 0.00 | 0.00 | 85 | 1014.6 |
| 20260902165045 | 66 | 115 | 0.9 | 0.0 | 0.00 | 0.00 | 0.00 | 86 | 1014.6 |
| 20260902164543 | 65 | 92 | 0.9 | 0.0 | 0.00 | 0.00 | 0.00 | 86 | 1014.6 |
| 20260902164045 | 65 | 189 | 1.7 | 0.0 | 0.00 | 0.00 | 0.00 | 87 | 1014.8 |
| 20260902163540 | 64 | 202 | 1.7 | 0.0 | 0.00 | 0.00 | 0.00 | 88 | 1014.8 |
| 20260902163040 | 64 | 186 | 1.7 | 0.0 | 0.00 | 0.00 | 0.00 | 89 | 1014.8 |
| 20260902162538 | 64 | 185 | 1.7 | 0.0 | 0.00 | 0.00 | 0.00 | 89 | 1014.7 |
| 20260902162038 | 63 | 188 | 1.7 | 0.0 | 0.00 | 0.00 | 0.00 | 90 | 1014.7 |
| 20260902161537 | 63 | 173 | 0.9 | 0.0 | 0.00 | 0.00 | 0.00 | 90 | 1014.7 |
| 20260902161037 | 63 | 188 | 0.9 | 0.0 | 0.00 | 0.00 | 0.00 | 90 | 1014.7 |
| 20260902160536 | 63 | 149 | 0.9 | 0.0 | 0.00 | 0.00 | 0.00 | 90 | 1014.7 |
| 20260902160046 | 63 | 175 | 0.9 | 0.0 | 0.00 | 0.00 | 0.00 | 91 | 1014.7 |
| 20260902155536 | 63 | 187 | 0.9 | 0.0 | 0.00 | 0.00 | 0.00 | 91 | 1014.5 |
| 20260902155040 | 63 | 44 | 0.9 | 0.0 | 0.00 | 0.00 | 0.00 | 92 | 1014.5 |
| 20260902154535 | 62 | 147 | 0.9 | 0.0 | 0.00 | 0.00 | 0.00 | 92 | 1014.5 |
| 20260902154034 | 62 | 130 | 0.9 | 0.0 | 0.00 | 0.00 | 0.00 | 93 | 1014.5 |
| 20260902153533 | 62 | 126 | 0.9 | 0.0 | 0.00 | 0.00 | 0.00 | 93 | 1014.5 |
| 20260902153034 | 62 | 176 | 0.9 | 0.0 | 0.00 | 0.00 | 0.00 | 94 | 1014.5 |
| 20260902152532 | 62 | 138 | 0.9 | 0.0 | 0.00 | 0.00 | 0.00 | 94 | 1014.5 |
| 20260902152032 | 62 | 188 | 0.9 | 0.0 | 0.00 | 0.00 | 0.00 | 94 | 1014.5 |
| 20260902151531 | 62 | 165 | 0.9 | 0.0 | 0.00 | 0.00 | 0.00 | 95 | 1014.5 |
| 20260902151034 | 62 | 200 | 0.9 | 0.0 | 0.00 | 0.00 | 0.00 | 95 | 1014.6 |
| 20260902150530 | 61 | 169 | 1.7 | 0.0 | 0.00 | 0.00 | 0.00 | 95 | 1014.6 |
| 20260902150029 | 61 | 205 | 0.9 | 0.0 | 0.00 | 0.00 | 0.00 | 95 | 1014.6 |
| 20260902145529 | 61 | 200 | 0.9 | 0.0 | 0.00 | 0.00 | 0.00 | 96 | 1014.6 |
| 20260902145031 | 61 | 169 | 0.9 | 0.0 | 0.00 | 0.00 | 0.00 | 96 | 1014.6 |
| 20260902144528 | 61 | 197 | 0.9 | 0.0 | 0.00 | 0.00 | 0.00 | 96 | 1014.6 |
| 20260902144027 | 61 | 202 | 0.9 | 0.0 | 0.00 | 0.00 | 0.00 | 96 | 1014.5 |
| 20260902143527 | 61 | 159 | 0.9 | 0.0 | 0.00 | 0.00 | 0.00 | 96 | 1014.5 |
| 20260902143027 | 60 | 219 | 0.9 | 0.0 | 0.00 | 0.00 | 0.00 | 96 | 1014.5 |
| 20260902142526 | 60 | 172 | 0.0 | 0.0 | 0.00 | 0.00 | 0.00 | 96 | 1014.3 |
| 20260902142026 | 60 | 144 | 0.0 | 0.0 | 0.00 | 0.00 | 0.00 | 96 | 1014.3 |
| 20260902141526 | 60 | 65 | 0.0 | 0.0 | 0.00 | 0.00 | 0.00 | 96 | 1014.3 |
| 20260902141027 | 59 | 65 | 0.0 | 0.0 | 0.00 | 0.00 | 0.00 | 96 | 1014.2 |
| 20260902140526 | 59 | 65 | 0.0 | 0.0 | 0.00 | 0.00 | 0.00 | 96 | 1014.2 |
| 20260902140034 | 59 | 65 | 0.0 | 0.0 | 0.00 | 0.00 | 0.00 | 96 | 1014.2 |
| 20260902135524 | 58 | 65 | 0.0 | 0.0 | 0.00 | 0.00 | 0.00 | 96 | 1014.1 |
| 20260902135024 | 58 | 65 | 0.0 | 0.0 | 0.00 | 0.00 | 0.00 | 96 | 1014.1 |
| 20260902134524 | 58 | 65 | 0.0 | 0.0 | 0.00 | 0.00 | 0.00 | 95 | 1014.1 |
| 20260902134023 | 58 | 65 | 0.0 | 0.0 | 0.00 | 0.00 | 0.00 | 95 | 1014.0 |
| 20260902133523 | 58 | 65 | 0.0 | 0.0 | 0.00 | 0.00 | 0.00 | 96 | 1014.0 |
| 20260902133023 | 58 | 65 | 0.0 | 0.0 | 0.00 | 0.00 | 0.00 | 95 | 1014.0 |
| 20260902132522 | 58 | 65 | 0.0 | 0.0 | 0.00 | 0.00 | 0.00 | 95 | 1013.9 |
| 20260902132022 | 59 | 65 | 0.0 | 0.0 | 0.00 | 0.00 | 0.00 | 95 | 1013.9 |
| 20260902131522 | 59 | 65 | 0.9 | 0.0 | 0.00 | 0.00 | 0.00 | 96 | 1013.9 |
| 20260902131026 | 59 | 65 | 0.9 | 0.0 | 0.00 | 0.00 | 0.00 | 96 | 1013.7 |
| 20260902130523 | 59 | 63 | 0.9 | 0.0 | 0.00 | 0.00 | 0.00 | 96 | 1013.7 |
| 20260902130022 | 59 | 79 | 0.9 | 0.0 | 0.00 | 0.00 | 0.00 | 96 | 1013.7 |
| 20260902125522 | 58 | 109 | 0.9 | 0.0 | 0.00 | 0.00 | 0.00 | 96 | 1013.5 |
| 20260902125023 | 58 | 57 | 0.9 | 0.0 | 0.00 | 0.00 | 0.00 | 96 | 1013.5 |
| 20260902124522 | 58 | 36 | 1.7 | 0.0 | 0.00 | 0.00 | 0.00 | 96 | 1013.5 |
| 20260902124021 | 58 | 35 | 1.7 | 0.0 | 0.00 | 0.00 | 0.00 | 96 | 1013.7 |
| 20260902123520 | 58 | 30 | 0.9 | 0.0 | 0.00 | 0.00 | 0.00 | 95 | 1013.7 |
| 20260902123025 | 58 | 37 | 0.9 | 0.0 | 0.00 | 0.00 | 0.00 | 95 | 1013.7 |
| 20260902122520 | 58 | 55 | 0.9 | 0.0 | 0.00 | 0.00 | 0.00 | 95 | 1013.7 |
| 20260902122019 | 58 | 31 | 1.7 | 0.0 | 0.00 | 0.00 | 0.00 | 95 | 1013.7 |
| 20260902121519 | 58 | 48 | 0.9 | 0.0 | 0.00 | 0.00 | 0.00 | 95 | 1013.7 |
| 20260902121019 | 58 | 55 | 0.0 | 0.0 | 0.00 | 0.00 | 0.00 | 95 | 1013.8 |
| 20260902120519 | 58 | 195 | 0.0 | 0.0 | 0.00 | 0.00 | 0.00 | 95 | 1013.8 |
| 20260902120019 | 58 | 195 | 0.0 | 0.0 | 0.00 | 0.00 | 0.00 | 95 | 1013.8 |
| 20260902115522 | 58 | 195 | 0.0 | 0.0 | 0.00 | 0.00 | 0.00 | 95 | 1013.8 |
| 20260902115018 | 58 | 195 | 0.0 | 0.0 | 0.00 | 0.00 | 0.00 | 95 | 1013.8 |
| 20260902114518 | 58 | 195 | 0.0 | 0.0 | 0.00 | 0.00 | 0.00 | 95 | 1013.8 |
| 20260902114023 | 59 | 195 | 0.0 | 0.0 | 0.00 | 0.00 | 0.00 | 95 | 1013.7 |
| 20260902113517 | 59 | 195 | 0.0 | 0.0 | 0.00 | 0.00 | 0.00 | 95 | 1013.7 |
| 20260902113017 | 59 | 195 | 0.0 | 0.0 | 0.00 | 0.00 | 0.00 | 95 | 1013.7 |
| 20260902112517 | 59 | 195 | 0.0 | 0.0 | 0.00 | 0.00 | 0.00 | 95 | 1013.9 |
| 20260902112017 | 59 | 195 | 0.0 | 0.0 | 0.00 | 0.00 | 0.00 | 95 | 1013.9 |
| 20260902111534 | 59 | 195 | 0.0 | 0.0 | 0.00 | 0.00 | 0.00 | 95 | 1013.9 |
| 20260902111016 | 59 | 195 | 0.0 | 0.0 | 0.00 | 0.00 | 0.00 | 95 | 1013.6 |
| 20260902110516 | 59 | 195 | 0.0 | 0.0 | 0.00 | 0.00 | 0.00 | 95 | 1013.6 |
| 20260902110043 | 59 | 195 | 0.0 | 0.0 | 0.00 | 0.00 | 0.00 | 94 | 1013.6 |
| 20260902105515 | 59 | 195 | 0.0 | 0.0 | 0.00 | 0.00 | 0.00 | 95 | 1013.7 |
| 20260902105015 | 59 | 195 | 0.0 | 0.0 | 0.00 | 0.00 | 0.00 | 95 | 1013.7 |
| 20260902104520 | 59 | 195 | 0.0 | 0.0 | 0.00 | 0.00 | 0.00 | 95 | 1013.7 |
| 20260902104016 | 59 | 195 | 0.0 | 0.0 | 0.00 | 0.00 | 0.00 | 94 | 1013.7 |
| 20260902103514 | 58 | 195 | 0.0 | 0.0 | 0.00 | 0.00 | 0.00 | 94 | 1013.7 |
| 20260902103014 | 58 | 195 | 0.0 | 0.0 | 0.00 | 0.00 | 0.00 | 94 | 1013.7 |
| 20260902102518 | 58 | 195 | 0.0 | 0.0 | 0.00 | 0.00 | 0.00 | 94 | 1013.7 |
| 20260902102013 | 58 | 195 | 0.0 | 0.0 | 0.00 | 0.00 | 0.00 | 94 | 1013.7 |
| 20260902101513 | 59 | 195 | 0.0 | 0.0 | 0.00 | 0.00 | 0.00 | 94 | 1013.7 |
| 20260902101013 | 59 | 195 | 0.0 | 0.0 | 0.00 | 0.00 | 0.00 | 94 | 1013.7 |
| 20260902100517 | 59 | 195 | 0.0 | 0.0 | 0.00 | 0.00 | 0.00 | 94 | 1013.7 |
| 20260902100015 | 59 | 195 | 0.0 | 0.0 | 0.00 | 0.00 | 0.00 | 94 | 1013.7 |
| 20260902095512 | 59 | 195 | 0.0 | 0.0 | 0.00 | 0.00 | 0.00 | 94 | 1013.7 |
| 20260902095012 | 59 | 195 | 0.0 | 0.0 | 0.00 | 0.00 | 0.00 | 93 | 1013.7 |
| 20260902094512 | 59 | 195 | 0.0 | 0.0 | 0.00 | 0.00 | 0.00 | 93 | 1013.7 |
| 20260902094012 | 59 | 195 | 0.0 | 0.0 | 0.00 | 0.00 | 0.00 | 93 | 1013.7 |
| 20260902093511 | 59 | 195 | 0.0 | 0.0 | 0.00 | 0.00 | 0.00 | 93 | 1013.7 |
| 20260902093010 | 59 | 195 | 0.0 | 0.0 | 0.00 | 0.00 | 0.00 | 93 | 1013.7 |
| 20260902092510 | 59 | 195 | 0.0 | 0.0 | 0.00 | 0.00 | 0.00 | 93 | 1013.9 |